Regional Weather Roundup
Issued by NWS

Home | Current Version | Previous Version | Graphics & Text | Print | Product List | Glossary On
Versions: 1 2 3 4 5 6 7 8 9 10 11 12 13 14 15 16 17 18 19 20 21 22 23 24 25 26 27 28 29 30 31 32 33 34 35 36 37 38 39 40 41 42 43 44 45 46 47 48 49 50
000
ASUS43 KOAX 061810
RWRNE

WEATHER ROUNDUP FOR NEBRASKA
NATIONAL WEATHER SERVICE OMAHA NE
100 PM CDT FRI MAY 06 2016

NOTES: SATELLITE DATA IS BEING USED TO AUGMENT CLOUD COVER ABOVE
       12000 FEET.
       "FAIR" INDICATES FEW OR NO CLOUDS BELOW 12,000 FEET WITH NO
       SIGNIFICANT WEATHER AND/OR OBSTRUCTIONS TO VISIBILITY.

  * THESE STATIONS DO NOT REPORT WEATHER SUCH AS RAIN...SNOW OR FOG.

NEZ001>004-019>022-054>056-061900-
NEBRASKA PANHANDLE

CITY           SKY/WX    TMP DP  RH WIND       PRES   REMARKS
SCOTTSBLUFF    CLOUDY    72  50  45 E10       29.94F
6HR MIN TEMP:  54; 6HR MAX TEMP:  72;

ALLIANCE       SUNNY     76  44  32 S18       29.95S
6HR MIN TEMP:  45; 6HR MAX TEMP:  76;

CHADRON        CLOUDY    79  48  33 CALM      29.91F
6HR MIN TEMP:  48; 6HR MAX TEMP:  80;

KIMBALL        CLOUDY    76  42  29 E13       29.97F
SIDNEY         CLOUDY    74  50  42 SE10      29.96F
6HR MIN TEMP:  51; 6HR MAX TEMP:  75;

$$

NEZ057>060-069>072-079>082-061900-
SOUTHWEST NEBRASKA

CITY           SKY/WX    TMP DP  RH WIND       PRES   REMARKS
NORTH PLATTE   MOSUNNY   79  51  37 S14       29.93F
6HR MIN TEMP:  56; 6HR MAX TEMP:  79;

IMPERIAL       MOSUNNY   77  50  38 SE14      29.94F
6HR MIN TEMP:  54; 6HR MAX TEMP:  77;

MCCOOK         MOSUNNY   76  53  44 SE15G24   29.95F
6HR MIN TEMP:  52; 6HR MAX TEMP:  76;

OGALLALA       SUNNY     76  46  35 SE12G17   29.94F
$$

NEZ005>010-023>029-035>040-094-061900-
NORTH CENTRAL NEBRASKA

CITY           SKY/WX    TMP DP  RH WIND       PRES   REMARKS
VALENTINE      MOSUNNY   84  44  24 SW20G28   29.90F
6HR MIN TEMP:  58; 6HR MAX TEMP:  84;

AINSWORTH      SUNNY     81  46  29 S18G28    29.92F
BROKEN BOW     SUNNY     78  51  38 S16G24    29.96F
6HR MIN TEMP:  53; 6HR MAX TEMP:  78; 6HR PCP: TRACE;

O`NEILL        SUNNY     83  47  28 SW16      29.92F
ORD            SUNNY     78  52  40 SW15G26   29.94F
6HR MIN TEMP:  55; 6HR MAX TEMP:  78;

THEDFORD       SUNNY     82  46  28 S16G22    29.95F
$$

NEZ041-046>049-061>064-073>077-083>087-061900-
SOUTH CENTRAL NEBRASKA

CITY           SKY/WX    TMP DP  RH WIND       PRES   REMARKS
GRAND ISLAND   MOSUNNY   81  47  30 S22G30    29.97F
6HR MIN TEMP:  56; 6HR MAX TEMP:  81;

AURORA         MOSUNNY   82  47  29 S20G28    29.98F
HASTINGS       MOSUNNY   79  48  33 S16G26    29.98F
6HR MIN TEMP:  53; 6HR MAX TEMP:  79;

HEBRON         SUNNY     81  40  23 S15G21    30.01F
HOLDREGE       SUNNY     78  47  32 S20G29    29.97F
KEARNEY *      SUNNY     79  50  36 S21G26    29.98F
YORK           CLOUDY    82  45  26 S17G26    29.98F
$$

NEZ011>018-030>034-042>045-061900-
NORTHEAST NEBRASKA

CITY           SKY/WX    TMP DP  RH WIND       PRES   REMARKS
NORFOLK        SUNNY     84  50  30 SW18G29   29.93F
6HR MIN TEMP:  57; 6HR MAX TEMP:  84;

ALBION         SUNNY     80  50  34 SW18G26   29.96S
BLAIR          SUNNY     84  44  25 S20       29.97F
COLUMBUS *     SUNNY     84  48  28 SW20G30   29.96F
FREMONT        SUNNY     82  45  27 SW15G22   29.97F
TEKAMAH        SUNNY     84  47  27 SW22G28   29.94F
6HR MIN TEMP:  49; 6HR MAX TEMP:  84;

WAYNE          SUNNY     81  53  37 SW21G26   29.93F
$$

NEZ050>053-065>068-078-088>093-061900-
SOUTHEAST NEBRASKA

CITY           SKY/WX    TMP DP  RH WIND       PRES   REMARKS
LINCOLN        SUNNY     85  38  18 S20       29.98F
6HR MIN TEMP:  53; 6HR MAX TEMP:  86;

OMAHA EPPLEY   MOSUNNY   84  42  22 S17       29.96F
6HR MIN TEMP:  53; 6HR MAX TEMP:  84;

BEATRICE       SUNNY     81  45  28 S16G24    30.01F
FALLS CITY     SUNNY     82  49  31 SW10G20   30.02F
6HR MIN TEMP:  51; 6HR MAX TEMP:  82;

NEBRASKA CITY  SUNNY     81  42  25 SW17G28   30.01F
PLATTSMOUTH    SUNNY     84  42  22 S21G26    29.99F
$$

NEZ044-045-051>053-067-061900-
OMAHA AREA

CITY           SKY/WX    TMP DP  RH WIND       PRES   REMARKS
OMAHA EPPLEY   MOSUNNY   84  42  22 S17       29.96F
6HR MIN TEMP:  53; 6HR MAX TEMP:  84;

BLAIR          SUNNY     84  44  25 S20       29.97F
FREMONT        SUNNY     82  45  27 SW15G22   29.97F
MILLARD        SUNNY     83  44  25 SW10G16   29.97F
OFFUTT AFB     SUNNY     83  42  23 SW15G23   29.97F
PLATTSMOUTH    SUNNY     84  42  22 S21G26    29.99F
WAHOO          FAIR      84  41  21 SW15G24   29.97F
$$




USA.gov is the U.S. government's official web portal to all federal, state and local government web resources and services.